D1965 Weather Reports


Display with metric or nautical units.
time (UTC)temp
F
wind
direction
speed
MPH
gust
MPH
rain 1hr
in
rain 24hr
in
rain mn
in
humidity
%
barometer
mb
20260509042004 41 19 1.0 4.0 0.00 0.00 0.00 92 1020.1
20260509041504 41 16 1.0 4.0 0.00 0.00 0.00 92 1020.1
20260509041004 41 20 1.0 3.0 0.00 0.00 0.00 92 1020.2
20260509040005 41 1 0.0 3.0 0.00 0.00 0.00 91 1020.0
20260509035505 41 3 0.0 3.0 0.00 0.00 0.00 91 1020.1
20260509035004 41 14 0.0 2.0 0.00 0.00 0.00 91 1020.1
20260509034504 41 18 0.0 2.0 0.00 0.00 0.00 91 1020.2
20260509034004 41 20 0.0 3.0 0.00 0.00 0.00 91 1020.1
20260509033505 42 21 1.0 3.0 0.00 0.00 0.00 92 1020.1
20260509033004 42 24 1.0 3.0 0.00 0.00 0.00 92 1020.1
20260509032505 42 26 1.0 3.0 0.00 0.00 0.00 92 1020.1
20260509032003 42 0 0.0 0.0 0.00 0.00 0.00 92 1020.1
20260509031505 42 0 0.0 0.0 0.00 0.00 0.00 92 1019.9
20260509031004 42 35 0.0 3.0 0.00 0.00 0.00 92 1020.0
20260509030004 42 12 0.0 3.0 0.00 0.00 0.00 93 1019.9
20260509025004 42 16 0.0 1.0 0.00 0.00 0.00 92 1019.8
20260509024004 42 0 0.0 0.0 0.00 0.00 0.00 91 1019.9
20260509023004 42 0 0.0 0.0 0.00 0.00 0.00 91 1019.9
20260509022504 42 0 0.0 0.0 0.00 0.00 0.00 91 1019.9
20260509022003 42 0 0.0 0.0 0.00 0.00 0.00 91 1019.9
20260509021504 42 15 0.0 1.0 0.00 0.00 0.00 91 1020.0
20260509021004 42 15 0.0 2.0 0.00 0.00 0.00 92 1019.9
20260509020004 42 19 0.0 3.0 0.00 0.00 0.00 92 1020.0
20260509015505 42 23 0.0 1.0 0.00 0.00 0.00 91 1020.1
20260509015004 42 23 0.0 2.0 0.00 0.00 0.00 91 1020.0
20260509014505 42 27 0.0 2.0 0.00 0.00 0.00 91 1020.0
20260509014004 42 27 0.0 4.0 0.00 0.00 0.00 90 1020.0
20260509013504 42 23 1.0 4.0 0.00 0.00 0.00 90 1019.9
20260509013004 42 16 1.0 3.0 0.00 0.00 0.00 90 1019.8
20260509012505 42 21 1.0 3.0 0.00 0.00 0.00 90 1019.8
20260509012004 43 16 1.0 4.0 0.00 0.00 0.00 90 1019.8
20260509011505 43 11 1.0 4.0 0.00 0.00 0.00 90 1019.7
20260509010004 43 17 1.0 4.0 0.00 0.00 0.00 90 1019.7
20260509005504 43 15 1.0 3.0 0.00 0.00 0.00 89 1019.6
20260509005004 43 26 1.0 3.0 0.00 0.00 0.00 89 1019.6
20260509004504 43 35 1.0 4.0 0.00 0.00 0.00 89 1019.5
20260509003505 44 29 1.0 5.0 0.00 0.00 0.00 89 1019.6
20260509003004 44 29 1.0 5.0 0.00 0.00 0.00 89 1019.6
20260509002505 44 19 1.0 4.0 0.00 0.00 0.00 89 1019.6
20260509002003 44 16 1.0 4.0 0.00 0.00 0.00 89 1019.5
20260509001504 44 20 1.0 4.0 0.00 0.00 0.00 89 1019.5
20260509001004 44 20 2.0 5.0 0.00 0.00 0.00 89 1019.4
20260509000505 44 21 2.0 5.0 0.00 0.00 0.00 89 1019.4
20260509000004 44 25 2.0 5.0 0.00 0.00 0.00 89 1019.4
20260508235504 44 24 1.0 4.0 0.00 0.00 0.00 89 1019.4
20260508234505 45 20 1.0 4.0 0.00 0.00 0.00 89 1019.4
20260508234004 45 23 1.0 7.0 0.00 0.00 0.00 88 1019.4
20260508233505 45 23 2.0 7.0 0.00 0.00 0.00 88 1019.4
20260508233003 45 32 2.0 7.0 0.00 0.00 0.00 88 1019.5
20260508232004 46 28 3.0 7.0 0.00 0.00 0.00 88 1019.3
20260508231505 46 29 2.0 7.0 0.00 0.00 0.00 88 1019.3
20260508231004 46 39 2.0 5.0 0.00 0.00 0.00 89 1019.5
20260508230504 47 38 2.0 5.0 0.00 0.00 0.00 89 1019.4
20260508230004 47 31 2.0 5.0 0.00 0.00 0.00 90 1019.3
20260508225505 47 28 2.0 7.0 0.00 0.00 0.00 90 1019.3
20260508225004 47 28 2.0 7.0 0.00 0.00 0.00 90 1019.2
20260508223506 48 30 2.0 4.0 0.00 0.00 0.00 90 1019.1
20260508223003 48 28 1.0 4.0 0.00 0.00 0.00 91 1019.0
20260508222504 48 13 1.0 3.0 0.00 0.00 0.00 91 1019.1
20260508221504 49 29 1.0 4.0 0.00 0.00 0.00 91 1018.9
20260508221004 49 24 1.0 5.0 0.00 0.00 0.00 91 1019.0
20260508220506 49 26 2.0 5.0 0.00 0.00 0.00 91 1018.9
20260508220004 49 31 2.0 5.0 0.00 0.00 0.00 91 1018.9
20260508215005 49 32 1.0 5.0 0.00 0.00 0.00 91 1018.8
20260508214506 49 24 1.0 4.0 0.00 0.00 0.00 91 1018.7
20260508214005 49 13 1.0 3.0 0.00 0.00 0.00 91 1018.6
20260508213005 49 10 0.0 3.0 0.00 0.00 0.00 90 1018.7
20260508212507 50 18 0.0 4.0 0.00 0.00 0.00 90 1018.6
20260508212005 50 36 1.0 4.0 0.00 0.00 0.00 90 1018.6
20260508211508 50 42 0.0 4.0 0.00 0.00 0.00 90 1018.6
20260508211006 50 40 0.0 4.0 0.00 0.00 0.00 90 1018.5
20260508210507 50 0 0.0 0.0 0.00 0.00 0.00 90 1018.4
20260508210006 50 40 0.0 3.0 0.00 0.00 0.00 90 1018.4
20260508205506 50 43 1.0 3.0 0.00 0.00 0.00 90 1018.3
20260508205006 50 37 1.0 4.0 0.00 0.00 0.00 90 1018.3
20260508204506 50 27 1.0 4.0 0.00 0.00 0.00 90 1018.1
20260508204006 50 28 1.0 4.0 0.00 0.00 0.00 90 1018.2
20260508203506 50 36 0.0 3.0 0.00 0.00 0.00 91 1018.2
20260508203005 50 34 0.0 5.0 0.00 0.00 0.00 90 1018.1
20260508202507 50 32 0.0 5.0 0.00 0.00 0.00 90 1018.0
20260508201507 50 26 1.0 3.0 0.00 0.00 0.00 90 1017.9
20260508201005 50 27 0.0 3.0 0.00 0.00 0.00 90 1017.8
20260508200507 50 25 0.0 3.0 0.00 0.00 0.00 90 1017.7
20260508200006 50 40 0.0 4.0 0.00 0.00 0.00 90 1017.7
20260508195506 50 38 1.0 4.0 0.00 0.00 0.00 90 1017.7
20260508194506 50 19 1.0 3.0 0.00 0.00 0.00 90 1017.6
20260508194006 50 34 2.0 5.0 0.00 0.00 0.00 90 1017.5
20260508193506 51 40 3.0 6.0 0.00 0.00 0.00 90 1017.4
20260508193005 51 39 3.0 6.0 0.00 0.00 0.00 90 1017.3
20260508192506 51 34 2.0 6.0 0.00 0.00 0.00 90 1017.3
20260508192005 51 36 2.0 5.0 0.00 0.00 0.00 90 1017.3
20260508191506 51 37 1.0 4.0 0.00 0.00 0.00 90 1017.3
20260508191005 51 23 0.0 3.0 0.00 0.00 0.00 91 1017.2
20260508190506 51 28 1.0 5.0 0.00 0.00 0.00 91 1017.2
20260508185506 50 36 0.0 3.0 0.00 0.00 0.00 90 1016.9
20260508184005 50 36 2.0 5.0 0.00 0.00 0.00 89 1016.7
20260508183506 50 34 2.0 5.0 0.00 0.00 0.00 88 1016.8
20260508182506 50 73 1.0 5.0 0.00 0.00 0.00 87 1016.6
20260508182005 50 77 3.0 7.0 0.00 0.00 0.00 86 1016.6
20260508181506 50 82 3.0 7.0 0.00 0.00 0.00 86 1016.5
20260508181006 50 81 4.0 9.0 0.00 0.00 0.00 86 1016.5
20260508180005 51 85 5.0 9.0 0.00 0.00 0.00 86 1016.4
20260508175506 51 85 4.0 9.0 0.00 0.00 0.00 86 1016.2
20260508174506 51 76 4.0 10.0 0.00 0.00 0.00 85 1016.3
20260508174005 51 78 5.0 11.0 0.00 0.00 0.00 84 1016.3
20260508173005 52 63 3.0 8.0 0.00 0.00 0.00 85 1016.2
20260508172505 52 58 4.0 8.0 0.00 0.00 0.00 84 1016.1
20260508171507 53 65 3.0 8.0 0.00 0.00 0.00 83 1016.1
20260508165506 56 31 3.0 9.0 0.00 0.00 0.00 71 1015.8
20260508165005 56 28 3.0 6.0 0.00 0.00 0.00 71 1015.7
20260508164506 56 30 3.0 6.0 0.00 0.00 0.00 70 1015.8
20260508164005 56 32 3.0 8.0 0.00 0.00 0.00 71 1015.7
20260508163506 56 35 4.0 10.0 0.00 0.00 0.00 70 1015.7
20260508162507 57 32 2.0 8.0 0.00 0.00 0.00 70 1015.8
20260508162005 57 34 2.0 5.0 0.00 0.00 0.00 71 1015.7
20260508161507 57 36 2.0 5.0 0.00 0.00 0.00 71 1015.7
20260508161005 57 31 2.0 7.0 0.00 0.00 0.00 70 1015.8
20260508160506 57 29 3.0 7.0 0.00 0.00 0.00 69 1015.7
20260508160005 57 30 2.0 5.0 0.00 0.00 0.00 68 1015.7
20260508155506 58 30 3.0 6.0 0.00 0.00 0.00 69 1015.6
20260508155005 58 28 3.0 6.0 0.00 0.00 0.00 67 1015.6
20260508154507 58 28 2.0 10.0 0.00 0.00 0.00 66 1015.7
20260508154005 58 28 2.0 10.0 0.00 0.00 0.00 66 1015.6
20260508153506 58 24 2.0 9.0 0.00 0.00 0.00 67 1015.5
20260508153005 59 30 1.0 5.0 0.00 0.00 0.00 66 1015.6
20260508152005 58 39 1.0 4.0 0.00 0.00 0.00 64 1015.6
20260508151505 58 55 1.0 3.0 0.00 0.00 0.00 64 1015.6
20260508151005 58 83 1.0 3.0 0.00 0.00 0.00 63 1015.5
20260508150006 58 72 2.0 4.0 0.00 0.00 0.00 65 1015.5
20260508145506 58 69 2.0 4.0 0.00 0.00 0.00 64 1015.5
20260508144506 58 89 1.0 7.0 0.00 0.00 0.00 64 1015.6
20260508144005 59 93 1.0 7.0 0.00 0.00 0.00 61 1015.6
20260508143505 59 96 0.0 4.0 0.00 0.00 0.00 58 1015.6
20260508143005 59 92 1.0 5.0 0.00 0.00 0.00 63 1015.5
20260508142506 59 81 1.0 5.0 0.00 0.00 0.00 57 1015.5
20260508142005 59 66 1.0 6.0 0.00 0.00 0.00 60 1015.4
20260508141505 59 71 2.0 6.0 0.00 0.00 0.00 55 1015.4
20260508141005 60 68 2.0 5.0 0.00 0.00 0.00 62 1015.3
20260508140507 60 55 1.0 4.0 0.00 0.00 0.00 59 1015.3
20260508140005 60 67 1.0 4.0 0.00 0.00 0.00 61 1015.2
20260508135506 59 68 1.0 4.0 0.00 0.00 0.00 59 1015.2
20260508135005 59 46 1.0 4.0 0.00 0.00 0.00 57 1015.1
20260508134506 59 45 1.0 7.0 0.00 0.00 0.00 58 1015.2
20260508134005 59 43 1.0 7.0 0.00 0.00 0.00 62 1015.2
20260508133506 60 44 1.0 4.0 0.00 0.00 0.00 63 1015.2
20260508133005 60 41 2.0 7.0 0.00 0.00 0.00 62 1015.2
20260508132506 61 39 2.0 7.0 0.00 0.00 0.00 60 1015.2
20260508132005 62 34 1.0 5.0 0.00 0.00 0.00 60 1015.2
20260508131505 62 35 1.0 5.0 0.00 0.00 0.00 59 1015.2
20260508131005 61 38 1.0 5.0 0.00 0.00 0.00 63 1015.2
20260508130506 61 38 1.0 5.0 0.00 0.00 0.00 60 1015.2
20260508130005 62 38 0.0 5.0 0.00 0.00 0.00 62 1015.2
20260508125505 62 0 0.0 0.0 0.00 0.00 0.00 61 1015.2
20260508125005 62 0 0.0 0.0 0.00 0.00 0.00 61 1015.1
20260508124506 62 0 0.0 0.0 0.00 0.00 0.00 63 1015.2
20260508124004 62 0 0.0 0.0 0.00 0.00 0.00 63 1015.1
20260508123505 62 0 0.0 0.0 0.00 0.00 0.00 62 1015.0
20260508123005 62 0 0.0 0.0 0.00 0.00 0.00 64 1015.0
20260508122506 61 0 0.0 0.0 0.00 0.00 0.00 67 1015.1
20260508122005 60 0 0.0 0.0 0.00 0.00 0.00 67 1015.1
20260508121004 59 0 0.0 0.0 0.00 0.00 0.00 66 1015.0
20260508120506 59 0 0.0 0.0 0.00 0.00 0.00 67 1015.0
20260508120005 59 0 0.0 0.0 0.00 0.00 0.00 67 1015.1
20260508115505 58 0 0.0 0.0 0.00 0.00 0.00 67 1015.1
20260508115004 58 0 0.0 0.0 0.00 0.00 0.00 66 1015.0
20260508114506 58 0 0.0 0.0 0.00 0.00 0.00 67 1015.1
20260508114005 58 0 0.0 0.0 0.00 0.00 0.00 65 1015.0
20260508113507 59 0 0.0 0.0 0.00 0.00 0.00 59 1014.9
20260508113005 59 0 0.0 0.0 0.00 0.00 0.00 59 1014.9
20260508112505 59 0 0.0 0.0 0.00 0.00 0.00 59 1014.8
20260508111505 58 0 0.0 0.0 0.00 0.00 0.00 62 1014.8
20260508110005 58 0 0.0 0.0 0.00 0.00 0.00 61 1014.8
20260508105506 58 27 0.0 3.0 0.00 0.00 0.00 59 1014.8
20260508105005 58 57 1.0 5.0 0.00 0.00 0.00 60 1014.8
20260508104505 58 73 2.0 6.0 0.00 0.00 0.00 63 1014.8
20260508104004 59 73 2.0 6.0 0.00 0.00 0.00 61 1014.9
20260508103506 59 67 2.0 6.0 0.00 0.00 0.00 64 1014.9
20260508103005 59 96 1.0 6.0 0.00 0.00 0.00 65 1014.8
20260508102004 59 143 0.0 4.0 0.00 0.00 0.00 57 1014.7
20260508101505 60 292 0.0 2.0 0.00 0.00 0.00 64 1014.8
20260508101005 60 292 0.0 2.0 0.00 0.00 0.00 68 1014.7
20260508100505 60 292 0.0 2.0 0.00 0.00 0.00 68 1014.6
20260508100005 59 0 0.0 0.0 0.00 0.00 0.00 70 1014.7
20260508095505 58 0 0.0 0.0 0.00 0.00 0.00 74 1014.7
20260508095004 58 0 0.0 0.0 0.00 0.00 0.00 73 1014.8
20260508094506 57 57 0.0 2.0 0.00 0.00 0.00 73 1014.8
20260508093505 57 45 1.0 4.0 0.00 0.00 0.00 73 1014.8
20260508093005 56 37 1.0 4.0 0.00 0.00 0.00 73 1014.7
20260508092506 56 22 0.0 1.0 0.00 0.00 0.00 74 1014.7
20260508092004 56 359 0.0 3.0 0.00 0.00 0.00 75 1014.7
20260508091505 56 359 0.0 3.0 0.00 0.00 0.00 74 1014.8
20260508091005 55 0 0.0 0.0 0.00 0.00 0.00 75 1014.8
20260508090006 55 0 0.0 0.0 0.00 0.00 0.00 75 1014.6
20260508085505 55 0 0.0 0.0 0.00 0.00 0.00 76 1014.7
20260508085004 55 28 0.0 1.0 0.00 0.00 0.00 75 1014.7
20260508084505 55 28 0.0 1.0 0.00 0.00 0.00 73 1014.7
20260508084005 55 24 1.0 3.0 0.00 0.00 0.00 74 1014.7
20260508083505 56 22 1.0 3.0 0.00 0.00 0.00 73 1014.8
20260508083005 56 19 0.0 3.0 0.00 0.00 0.00 73 1014.7
20260508082506 56 37 0.0 2.0 0.00 0.00 0.00 74 1014.7
20260508082005 56 37 0.0 2.0 0.00 0.00 0.00 74 1014.5
20260508081505 56 37 0.0 2.0 0.00 0.00 0.00 72 1014.6
20260508081005 56 36 0.0 2.0 0.00 0.00 0.00 74 1014.5
20260508080505 55 0 0.0 0.0 0.00 0.00 0.00 73 1014.7
20260508080004 55 0 0.0 0.0 0.00 0.00 0.00 75 1014.6
20260508075506 55 0 0.0 0.0 0.00 0.00 0.00 74 1014.6
20260508075005 55 0 0.0 0.0 0.00 0.00 0.00 75 1014.5
20260508074004 54 0 0.0 0.0 0.00 0.00 0.00 75 1014.3
20260508073505 54 0 0.0 0.0 0.00 0.00 0.00 75 1014.2
20260508073005 54 0 0.0 0.0 0.00 0.00 0.00 75 1014.2
20260508072505 54 0 0.0 0.0 0.00 0.00 0.00 77 1014.2
20260508072005 54 0 0.0 0.0 0.00 0.00 0.00 77 1014.2
20260508071505 53 0 0.0 0.0 0.00 0.00 0.00 77 1014.2
20260508071004 53 0 0.0 0.0 0.00 0.00 0.00 80 1014.1
20260508070005 51 0 0.0 0.0 0.00 0.00 0.00 82 1014.0
20260508065504 50 0 0.0 0.0 0.00 0.00 0.00 83 1014.0
20260508065004 50 0 0.0 0.0 0.00 0.00 0.00 86 1014.1
20260508064506 49 0 0.0 0.0 0.00 0.00 0.00 88 1014.0
20260508064004 48 0 0.0 0.0 0.00 0.00 0.00 90 1014.0
20260508063505 47 0 0.0 0.0 0.00 0.00 0.00 92 1013.9
20260508063004 46 0 0.0 0.0 0.00 0.00 0.00 92 1013.9
20260508062505 45 0 0.0 0.0 0.00 0.00 0.00 91 1014.0
20260508062004 45 0 0.0 0.0 0.00 0.00 0.00 91 1013.9
20260508061505 44 0 0.0 0.0 0.00 0.00 0.00 91 1013.9
20260508061004 44 0 0.0 0.0 0.00 0.00 0.00 92 1013.8
20260508060505 43 0 0.0 0.0 0.00 0.00 0.00 93 1013.8
20260508060005 42 0 0.0 0.0 0.00 0.00 0.00 93 1013.8
20260508055505 42 0 0.0 0.0 0.00 0.00 0.00 93 1013.8
20260508054505 41 0 0.0 0.0 0.00 0.00 0.00 92 1013.6
20260508054004 41 0 0.0 0.0 0.00 0.00 0.00 92 1013.5
20260508053505 41 0 0.0 0.0 0.00 0.00 0.00 92 1013.4
20260508053005 41 0 0.0 0.0 0.00 0.00 0.00 93 1013.4
20260508052005 40 0 0.0 0.0 0.00 0.00 0.00 92 1013.4
20260508051505 40 0 0.0 0.0 0.00 0.00 0.00 91 1013.4
20260508051004 40 0 0.0 0.0 0.00 0.00 0.00 90 1013.3
20260508050505 40 0 0.0 0.0 0.00 0.00 0.00 90 1013.4
20260508045505 40 0 0.0 0.0 0.00 0.00 0.00 91 1013.4
20260508045004 40 0 0.0 0.0 0.00 0.00 0.00 91 1013.5
20260508044505 40 0 0.0 0.0 0.00 0.00 0.00 91 1013.3
20260508044004 40 0 0.0 0.0 0.00 0.00 0.00 91 1013.4